Reflectivity
-3 6 1 -8 -20 -14 -20 -7 -13 25 35 49 25 0 1 12 -4 21 17 21 4 -14
25 27 13 26 23 15 27 -8 19 25 31 29 16 26 18 14 8 7 15 15 11 -6
22 4 25 25 -6 6 20 28 19 -10 19 18 12 5 25 25 21 24 13 -6 20 10
-1 -20 15 5 14 -0 -20 -20 -20 -20 -20 -20 -20 10 -8 12 25 18 24 19 24 -8
-3 -16 -20 -8 -20 -20 -20 -20 -20 -20 -20 -20 4 -20 14 20 7 20 20 27 25 -4
30 6 11 17 -10 -20 -20 -20 -20 -20 -20 -20 -20 -20 -20 -20 9 8 16 23 18 2
25 30 34 26 -11 -20 -11 -20 -20 -20 -20 -20 -20 -20 -20 -20 -20 -15 7 7 7 16
4 6 5 -16 -20 -17 -19 -20 -20 -20 -20 -20 -20 -20 -20 -19 -20 -20 -19 13 16 23
5 5 2 -20 -6 -8 -20 -20 -20 -20 -20 -20 -20 -13 10 6 -20 -20 -20 -18 16 25
-20 -20 -20 -20 -6 -2 -20 -19 -20 -20 -20 -20 -20 10 -8 -9 -20 -20 -20 -20 -17 -11
-16 -20 -9 -9 -20 -20 -20 -13 -11 -4 -11 -20 -20 -2 -19 -20 -20 -20 -20 -20 -20 -5
10 15 16 16 16 -12 -10 7 0 -6 9 -14 -5 -8 4 -20 -20 -20 -20 -20 -18 -8
-20 -20 -20 -20 -20 -7 -2 -20 -20 -20 -20 -20 -20 1 10 3 -20 -20 -20 -20 8 9
-20 -20 -20 -20 -20 -20 -20 -20 -20 -20 -20 -20 -20 -20 -20 -17 -19 -20 -20 -20 -20 -20
Wind_Speed
9 1 4 3 4 7 7 7 8 7 5 16 11 13 14 12 12 13 14 17 14 11
9 8 7 7 5 4 5 7 8 6 11 12 8 8 11 11 13 13 13 14 15 13
13 10 6 6 9 7 5 10 4 3 2 5 7 7 11 9 11 12 12 11 14 14
13 15 12 10 9 8 7 6 5 4 4 3 6 9 7 10 11 13 13 13 15 16
13 12 10 9 8 8 8 8 6 6 7 6 7 6 10 10 10 13 14 14 14 15
13 12 11 9 10 9 8 9 8 8 8 7 8 8 9 8 8 9 10 13 14 15
12 12 12 10 12 9 12 10 9 7 7 7 7 9 9 8 9 11 11 13 14 15
14 15 15 14 13 13 12 10 11 10 10 10 9 5 11 12 12 11 11 10 13 14
17 16 14 14 14 13 12 12 12 11 11 10 7 11 9 11 12 12 11 10 11 11
17 16 16 16 15 14 13 12 11 12 12 12 12 10 13 12 13 13 12 11 11 6
17 16 16 15 14 14 12 12 11 12 12 12 11 12 13 15 15 13 13 12 10 10
14 14 13 14 15 14 12 11 11 12 13 13 13 13 11 14 14 13 13 11 9 10
14 15 15 15 15 13 14 13 12 13 13 15 15 13 10 13 10 12 10 11 9 10
13 14 13 14 12 13 13 12 12 13 12 13 13 15 17 14 11 9 10 9 10 8
Wind_Direction
8 117 151 131 160 184 167 155 155 168 250 270 236 215 208 213 212 210 219 216 213 213
27 46 76 78 78 64 42 83 50 142 201 225 225 233 220 213 212 209 213 217 215 213
6 27 41 52 60 62 37 50 65 139 274 298 234 224 229 231 224 221 217 215 217 215
1 11 19 24 35 38 47 42 33 350 285 289 306 271 222 228 231 221 226 219 218 214
8 13 5 14 27 24 31 27 5 355 351 318 278 290 288 236 227 227 224 223 219 219
7 10 360 359 17 14 26 26 3 1 338 323 309 295 294 305 273 239 238 229 222 222
356 359 5 345 14 356 24 19 358 345 314 313 325 317 302 335 330 325 252 230 234 229
351 1 359 2 3 5 10 1 348 339 341 340 334 345 352 337 313 303 305 269 234 233
356 356 351 359 360 360 358 355 343 341 337 334 322 5 345 335 316 295 284 294 252 247
348 351 352 354 354 353 350 345 335 338 336 328 326 341 334 333 317 297 284 279 289 243
343 348 348 346 345 345 347 338 340 328 330 326 321 327 331 330 312 301 291 281 280 273
340 341 342 347 343 339 331 328 336 329 333 325 317 320 324 330 318 307 302 300 281 270
344 343 344 341 339 332 338 333 331 330 328 322 314 324 336 331 315 307 307 304 296 272
347 345 341 339 335 336 335 329 329 327 325 322 324 320 329 320 321 315 312 301 299 291